QPF
0.00 0.00 0.00 0.00 0.00 0.00 0.00 0.00 0.00 0.00 0.00 0.00 0.00 0.00 0.00 0.00 0.00 0.00 0.00 0.00 0.00 0.00 0.00 0.01 0.00 0.00 0.01 0.01 0.00 0.00 0.00 0.00 0.00 0.00 0.00 0.00 0.00 0.00 0.00 0.00 0.00 0.00
0.00 0.00 0.00 0.00 0.00 0.00 0.00 0.00 0.00 0.00 0.00 0.00 0.00 0.00 0.00 0.00 0.00 0.00 0.00 0.00 0.00 0.00 0.01 0.00 0.00 0.00 0.00 0.01 0.01 0.00 0.00 0.00 0.00 0.00 0.00 0.00 0.00 0.00 0.00 0.00 0.00 0.00
0.00 0.00 0.00 0.00 0.00 0.00 0.00 0.00 0.00 0.00 0.00 0.00 0.00 0.00 0.00 0.00 0.00 0.00 0.00 0.00 0.00 0.00 0.00 0.00 0.00 0.00 0.00 0.00 0.01 0.01 0.00 0.00 0.00 0.00 0.00 0.00 0.00 0.00 0.00 0.00 0.00 0.00
0.00 0.00 0.00 0.00 0.00 0.00 0.00 0.00 0.00 0.00 0.00 0.00 0.00 0.00 0.00 0.00 0.00 0.00 0.00 0.00 0.00 0.00 0.00 0.00 0.02 0.02 0.00 0.00 0.01 0.00 0.00 0.00 0.00 0.00 0.00 0.00 0.00 0.00 0.00 0.00 0.00 0.00
0.00 0.00 0.00 0.00 0.00 0.00 0.00 0.00 0.00 0.00 0.00 0.00 0.00 0.00 0.00 0.00 0.00 0.00 0.00 0.00 0.00 0.00 0.00 0.00 0.00 0.00 0.00 0.00 0.00 0.00 0.00 0.07 0.02 0.00 0.00 0.00 0.00 0.00 0.00 0.00 0.00 0.00
0.00 0.00 0.00 0.00 0.00 0.00 0.00 0.00 0.00 0.00 0.00 0.00 0.00 0.00 0.00 0.00 0.00 0.00 0.00 0.00 0.00 0.00 0.00 0.00 0.00 0.00 0.01 0.00 0.00 0.00 0.00 0.01 0.00 0.00 0.00 0.00 0.00 0.00 0.00 0.00 0.00 0.00
0.00 0.00 0.00 0.00 0.00 0.00 0.00 0.00 0.00 0.00 0.00 0.00 0.00 0.00 0.00 0.00 0.00 0.00 0.00 0.00 0.00 0.00 0.00 0.00 0.00 0.00 0.00 0.00 0.00 0.00 0.00 0.01 0.01 0.00 0.00 0.00 0.00 0.00 0.00 0.00 0.00 0.00
0.00 0.00 0.00 0.00 0.00 0.00 0.00 0.00 0.00 0.00 0.00 0.00 0.00 0.00 0.00 0.00 0.00 0.00 0.00 0.00 0.00 0.00 0.00 0.00 0.00 0.00 0.00 0.00 0.00 0.00 0.00 0.00 0.00 0.00 0.01 0.00 0.00 0.00 0.00 0.00 0.00 0.00
0.00 0.00 0.00 0.00 0.00 0.00 0.00 0.00 0.00 0.00 0.00 0.00 0.00 0.00 0.00 0.00 0.00 0.00 0.00 0.00 0.00 0.00 0.00 0.00 0.00 0.00 0.00 0.00 0.00 0.00 0.00 0.00 0.00 0.00 0.00 0.00 0.00 0.00 0.00 0.00 0.00 0.00
0.00 0.00 0.00 0.00 0.00 0.00 0.00 0.00 0.00 0.00 0.00 0.00 0.00 0.00 0.00 0.00 0.00 0.00 0.00 0.00 0.00 0.00 0.00 0.00 0.00 0.00 0.00 0.00 0.00 0.00 0.00 0.00 0.00 0.00 0.00 0.00 0.00 0.00 0.00 0.00 0.00 0.00
0.00 0.00 0.00 0.00 0.00 0.00 0.00 0.00 0.00 0.00 0.00 0.00 0.00 0.00 0.00 0.00 0.00 0.00 0.00 0.00 0.00 0.00 0.00 0.00 0.00 0.00 0.00 0.00 0.00 0.00 0.00 0.00 0.00 0.00 0.00 0.00 0.00 0.00 0.00 0.00 0.00 0.00
0.00 0.00 0.00 0.00 0.00 0.00 0.00 0.00 0.00 0.00 0.00 0.00 0.00 0.00 0.00 0.00 0.00 0.00 0.00 0.00 0.00 0.00 0.00 0.00 0.00 0.00 0.00 0.00 0.00 0.00 0.00 0.00 0.00 0.00 0.00 0.00 0.00 0.00 0.00 0.00 0.00 0.00
0.00 0.00 0.00 0.00 0.00 0.00 0.00 0.00 0.00 0.00 0.00 0.00 0.00 0.00 0.00 0.00 0.00 0.00 0.00 0.00 0.00 0.00 0.00 0.00 0.00 0.00 0.00 0.00 0.00 0.00 0.00 0.00 0.00 0.00 0.00 0.00 0.00 0.00 0.00 0.00 0.00 0.00
0.01 0.01 0.00 0.00 0.00 0.00 0.00 0.00 0.00 0.00 0.00 0.00 0.00 0.00 0.00 0.00 0.00 0.00 0.00 0.00 0.00 0.00 0.00 0.00 0.00 0.00 0.00 0.00 0.00 0.00 0.00 0.00 0.00 0.00 0.00 0.00 0.00 0.00 0.00 0.00 0.00 0.00
0.01 0.00 0.00 0.00 0.00 0.00 0.00 0.00 0.00 0.00 0.00 0.00 0.00 0.00 0.00 0.00 0.00 0.00 0.00 0.00 0.00 0.00 0.00 0.00 0.00 0.00 0.00 0.00 0.00 0.00 0.00 0.00 0.00 0.00 0.00 0.00 0.00 0.00 0.00 0.00 0.00 0.00
0.00 0.00 0.00 0.00 0.00 0.00 0.00 0.00 0.00 0.00 0.00 0.00 0.00 0.00 0.00 0.00 0.00 0.00 0.00 0.00 0.00 0.00 0.00 0.00 0.00 0.00 0.00 0.00 0.00 0.00 0.00 0.00 0.00 0.00 0.00 0.00 0.00 0.00 0.00 0.00 0.00 0.00
0.00 0.00 0.00 0.00 0.00 0.00 0.00 0.00 0.00 0.00 0.00 0.00 0.00 0.00 0.00 0.00 0.00 0.00 0.00 0.00 0.00 0.00 0.00 0.00 0.00 0.00 0.00 0.00 0.00 0.00 0.00 0.00 0.00 0.00 0.00 0.00 0.00 0.00 0.00 0.00 0.00 0.00
0.04 0.00 0.00 0.00 0.00 0.00 0.00 0.00 0.00 0.00 0.00 0.00 0.00 0.00 0.00 0.00 0.00 0.00 0.00 0.00 0.00 0.00 0.00 0.00 0.00 0.00 0.00 0.00 0.00 0.00 0.00 0.00 0.00 0.00 0.00 0.00 0.00 0.00 0.00 0.00 0.00 0.00
0.12 0.06 0.01 0.01 0.00 0.00 0.00 0.00 0.00 0.00 0.00 0.00 0.00 0.00 0.00 0.00 0.00 0.00 0.00 0.00 0.00 0.00 0.00 0.00 0.00 0.00 0.00 0.00 0.00 0.00 0.00 0.00 0.00 0.00 0.00 0.00 0.00 0.00 0.00 0.00 0.00 0.00
0.35 0.29 0.08 0.01 0.01 0.00 0.00 0.00 0.00 0.00 0.00 0.00 0.00 0.00 0.00 0.00 0.00 0.00 0.00 0.00 0.00 0.00 0.00 0.00 0.00 0.00 0.00 0.00 0.00 0.00 0.00 0.00 0.00 0.00 0.00 0.00 0.00 0.00 0.00 0.00 0.00 0.00
0.54 0.43 0.17 0.19 0.03 0.00 0.01 0.01 0.00 0.00 0.00 0.02 0.02 0.00 0.00 0.00 0.00 0.00 0.00 0.00 0.00 0.00 0.00 0.00 0.00 0.00 0.00 0.00 0.00 0.00 0.00 0.00 0.00 0.00 0.00 0.00 0.00 0.00 0.00 0.00 0.00 0.00
0.21 0.27 0.21 0.19 0.14 0.13 0.04 0.02 0.01 0.00 0.00 0.00 0.04 0.03 0.01 0.01 0.00 0.00 0.01 0.00 0.00 0.00 0.00 0.00 0.00 0.00 0.00 0.00 0.00 0.00 0.00 0.00 0.00 0.00 0.00 0.00 0.00 0.00 0.00 0.00 0.00 0.00
0.08 0.06 0.10 0.16 0.27 0.33 0.23 0.30 0.33 0.30 0.14 0.28 0.27 0.14 0.08 0.12 0.11 0.04 0.06 0.01 0.01 0.00 0.00 0.00 0.00 0.00 0.00 0.00 0.00 0.00 0.00 0.00 0.00 0.00 0.00 0.00 0.00 0.00 0.00 0.00 0.00 0.00
0.05 0.04 0.01 0.02 0.20 0.20 0.51 0.59 0.42 0.39 0.43 0.33 0.35 0.38 0.26 0.12 0.23 0.11 0.21 0.26 0.15 0.05 0.00 0.01 0.00 0.00 0.00 0.00 0.00 0.00 0.00 0.00 0.00 0.00 0.00 0.00 0.00 0.00 0.00 0.00 0.00 0.00
0.15 0.18 0.08 0.04 0.04 0.11 0.44 0.51 0.41 0.25 0.53 0.44 0.70 0.86 0.53 0.24 0.16 0.17 0.17 0.14 0.14 0.15 0.19 0.09 0.07 0.00 0.00 0.00 0.00 0.00 0.00 0.00 0.00 0.00 0.00 0.00 0.00 0.00 0.00 0.00 0.00 0.00
0.00 0.03 0.13 0.08 0.12 0.06 0.22 0.84 0.65 0.24 0.19 0.12 0.19 0.15 0.32 0.48 0.36 0.19 0.33 0.27 0.19 0.22 0.08 0.08 0.06 0.14 0.13 0.06 0.01 0.00 0.00 0.00 0.00 0.00 0.00 0.00 0.00 0.00 0.00 0.00 0.00 0.00
MSLP
1016.16 1016.36 1016.64 1016.88 1017.00 1016.96 1017.20 1017.44 1017.48 1017.68 1017.80 1017.76 1018.08 1018.04 1018.16 1018.04 1017.84 1018.00 1018.08 1018.32 1018.56 1018.76 1018.88 1019.00 1019.08 1019.24 1019.28 1019.32 1019.40 1019.52 1019.68 1019.84 1019.72 1019.76 1020.00 1020.08 1020.24 1020.24 1020.24 1020.28 1020.24 1020.40
1015.92 1016.04 1016.20 1016.44 1016.68 1016.72 1016.76 1016.84 1017.12 1017.28 1017.56 1017.60 1017.56 1017.72 1017.68 1017.72 1017.84 1017.92 1018.12 1018.28 1018.44 1018.60 1018.68 1018.88 1018.96 1019.08 1019.20 1019.28 1019.40 1019.60 1019.72 1019.76 1019.92 1019.28 1019.92 1020.12 1020.12 1020.00 1020.04 1020.00 1020.12 1020.00
1015.64 1015.84 1016.08 1016.32 1016.44 1016.60 1016.52 1016.52 1016.68 1016.88 1017.04 1017.16 1017.12 1017.32 1017.48 1017.44 1017.72 1017.80 1017.92 1018.12 1018.32 1018.32 1018.52 1018.64 1018.84 1018.96 1019.04 1019.12 1019.24 1019.48 1019.56 1019.76 1019.88 1019.36 1019.60 1020.00 1019.92 1020.04 1019.88 1019.68 1019.80 1019.92
1015.36 1015.44 1015.64 1015.76 1015.76 1016.08 1016.20 1016.40 1016.56 1016.68 1016.64 1016.96 1017.08 1017.00 1017.04 1017.12 1017.44 1017.72 1017.88 1018.00 1018.16 1018.28 1018.28 1018.44 1018.76 1018.88 1018.84 1018.96 1019.12 1019.36 1019.36 1019.48 1019.40 1019.32 1019.64 1019.68 1019.72 1019.68 1019.76 1019.64 1019.60 1019.60
1015.04 1015.24 1015.28 1015.36 1015.36 1015.48 1015.80 1016.20 1016.28 1016.48 1016.56 1016.52 1016.64 1016.72 1017.00 1017.16 1017.36 1017.56 1017.76 1017.96 1018.08 1018.16 1018.20 1018.36 1018.36 1018.52 1018.60 1018.80 1018.96 1019.24 1019.12 1019.36 1019.28 1019.36 1019.68 1019.84 1019.64 1019.64 1019.48 1019.52 1019.80 1019.88
1014.64 1014.80 1014.96 1015.12 1015.24 1015.40 1015.64 1015.88 1016.04 1016.00 1016.24 1016.32 1016.40 1016.36 1016.60 1016.92 1017.12 1017.28 1017.44 1017.72 1017.76 1017.84 1017.84 1018.00 1018.20 1018.28 1018.40 1018.64 1018.80 1018.96 1018.96 1019.04 1018.92 1019.32 1019.64 1019.80 1019.60 1019.24 1019.20 1019.32 1019.68 1019.96
1014.40 1014.60 1014.80 1014.80 1015.00 1015.12 1015.40 1015.48 1015.64 1015.72 1015.76 1015.76 1015.92 1016.20 1016.20 1016.64 1017.00 1017.04 1017.12 1017.28 1017.32 1017.48 1017.56 1017.68 1018.00 1018.12 1018.08 1018.28 1018.64 1018.92 1018.84 1019.08 1018.92 1019.12 1019.52 1019.56 1019.56 1019.52 1019.16 1019.20 1019.48 1019.84
1013.96 1014.08 1014.32 1014.48 1014.76 1014.92 1015.20 1015.20 1015.32 1015.52 1015.48 1015.56 1015.80 1015.96 1015.96 1016.20 1016.56 1016.64 1016.80 1016.92 1017.16 1017.32 1017.40 1017.36 1017.60 1017.88 1017.88 1018.04 1018.44 1018.72 1018.84 1018.60 1018.84 1019.08 1019.36 1019.44 1019.40 1019.60 1019.48 1019.28 1019.44 1019.80
1013.48 1013.68 1014.00 1014.24 1014.48 1014.56 1014.80 1014.80 1014.92 1015.08 1015.16 1015.52 1015.56 1015.52 1015.68 1015.84 1016.00 1016.24 1016.48 1016.68 1016.88 1017.08 1017.28 1017.36 1017.40 1017.60 1017.68 1017.80 1018.04 1018.36 1018.68 1018.52 1018.32 1018.72 1019.12 1019.32 1019.44 1019.48 1019.36 1019.24 1019.52 1019.64
1013.24 1013.28 1013.52 1013.80 1014.08 1014.04 1014.28 1014.28 1014.28 1014.56 1014.76 1015.12 1015.28 1015.08 1015.36 1015.64 1015.60 1015.80 1016.08 1016.48 1016.76 1016.88 1017.08 1017.24 1017.32 1017.36 1017.44 1017.60 1017.80 1017.96 1018.24 1018.48 1018.36 1018.40 1018.52 1018.72 1018.92 1019.00 1019.00 1019.12 1019.28 1019.48
1012.88 1012.88 1013.12 1013.36 1013.48 1013.48 1013.68 1013.76 1013.80 1013.88 1014.24 1014.68 1014.84 1015.00 1014.88 1015.16 1015.56 1015.56 1015.84 1016.16 1016.52 1016.68 1016.80 1016.96 1017.04 1017.12 1017.32 1017.32 1017.40 1017.48 1017.76 1018.00 1018.08 1018.24 1018.32 1018.40 1018.44 1018.52 1018.52 1018.64 1018.80 1019.00
1012.60 1012.60 1012.76 1012.84 1013.00 1013.00 1013.08 1013.24 1013.32 1013.44 1013.60 1014.04 1014.36 1014.68 1014.68 1014.64 1015.08 1015.40 1015.56 1015.88 1016.00 1016.16 1016.28 1016.48 1016.60 1016.72 1016.92 1017.08 1017.08 1017.12 1017.36 1017.60 1017.76 1017.92 1018.00 1018.08 1018.12 1018.12 1018.16 1018.16 1018.32 1018.48
1012.40 1012.60 1012.32 1012.32 1012.52 1012.60 1012.48 1012.64 1012.88 1013.00 1013.16 1013.44 1013.72 1014.12 1014.36 1014.48 1014.44 1014.92 1015.12 1015.36 1015.64 1015.76 1015.88 1016.04 1016.24 1016.36 1016.52 1016.72 1016.80 1016.80 1017.04 1017.32 1017.40 1017.48 1017.60 1017.64 1017.68 1017.68 1017.60 1017.60 1017.76 1017.88
1012.44 1012.28 1012.08 1012.08 1012.00 1012.20 1012.36 1012.28 1012.36 1012.56 1012.76 1012.88 1013.04 1013.64 1013.96 1014.00 1014.08 1014.28 1014.60 1014.88 1015.12 1015.32 1015.40 1015.44 1015.80 1016.08 1016.20 1016.36 1016.48 1016.56 1016.68 1016.92 1017.08 1017.12 1017.20 1017.32 1017.32 1017.28 1017.20 1017.16 1017.20 1017.32
1012.28 1011.96 1011.76 1011.92 1011.96 1012.04 1012.28 1012.36 1012.24 1012.28 1012.40 1012.64 1012.84 1013.04 1013.20 1013.48 1013.52 1013.60 1014.00 1014.52 1014.64 1014.88 1015.08 1015.12 1015.32 1015.64 1015.72 1015.92 1016.24 1016.40 1016.36 1016.56 1016.68 1016.88 1016.96 1017.04 1017.04 1016.96 1016.88 1016.92 1016.84 1016.72
1011.76 1011.72 1011.68 1011.76 1011.96 1012.12 1012.16 1012.28 1012.28 1012.20 1012.20 1012.40 1012.64 1012.76 1012.88 1013.08 1013.28 1013.40 1013.52 1013.88 1014.40 1014.64 1014.76 1014.84 1014.92 1014.88 1015.12 1015.40 1015.60 1015.84 1016.12 1016.12 1016.24 1016.48 1016.60 1016.72 1016.88 1016.88 1016.72 1016.52 1016.48 1016.32
1012.00 1011.96 1011.80 1011.92 1011.84 1011.96 1012.00 1012.12 1012.24 1012.16 1012.20 1012.32 1012.44 1012.60 1012.80 1012.92 1013.16 1013.36 1013.44 1013.36 1013.64 1014.12 1014.52 1014.56 1014.48 1014.36 1014.64 1015.08 1015.40 1015.56 1015.64 1015.92 1016.12 1016.24 1016.32 1016.48 1016.56 1016.76 1016.84 1016.48 1016.08 1015.96
1012.88 1012.12 1012.12 1011.96 1011.84 1011.92 1011.92 1011.92 1012.00 1012.20 1012.28 1012.32 1012.40 1012.56 1012.72 1012.68 1013.00 1013.24 1013.24 1013.20 1013.16 1013.32 1013.72 1014.00 1014.08 1013.96 1014.32 1014.72 1015.08 1015.36 1015.48 1015.56 1015.68 1015.92 1016.00 1016.16 1016.20 1016.24 1016.24 1016.24 1016.12 1015.88
1014.52 1013.08 1012.36 1012.16 1011.96 1011.88 1011.80 1011.80 1012.00 1012.16 1012.28 1012.32 1012.36 1012.20 1012.32 1012.80 1013.04 1013.00 1013.16 1013.12 1013.12 1013.20 1013.24 1013.20 1013.44 1013.56 1014.08 1014.44 1014.76 1015.04 1015.32 1015.48 1015.32 1015.40 1015.64 1015.68 1015.68 1015.80 1015.80 1015.84 1015.84 1015.88
1014.76 1014.36 1013.20 1012.36 1012.12 1011.84 1011.68 1011.84 1011.96 1012.16 1012.12 1011.92 1012.00 1012.12 1012.36 1012.60 1012.72 1012.96 1012.96 1013.08 1013.12 1013.16 1013.12 1012.88 1012.88 1013.00 1013.64 1014.12 1014.48 1014.80 1015.08 1015.40 1015.28 1015.12 1015.16 1015.16 1015.24 1015.24 1015.24 1015.36 1015.48 1015.56
1014.92 1014.84 1014.52 1013.56 1012.56 1012.00 1012.04 1012.08 1011.96 1012.00 1012.08 1012.12 1012.04 1012.08 1012.44 1012.64 1012.68 1012.88 1012.84 1012.84 1012.84 1012.88 1013.04 1012.96 1012.72 1012.72 1013.28 1013.68 1014.12 1014.56 1014.88 1015.28 1015.08 1015.00 1014.88 1014.84 1014.80 1014.76 1014.84 1014.88 1014.92 1015.00
1014.52 1014.60 1014.44 1013.92 1013.84 1013.28 1012.52 1012.28 1012.28 1012.48 1012.52 1012.44 1012.56 1012.32 1012.24 1012.16 1012.12 1012.44 1012.64 1012.64 1012.48 1012.56 1012.72 1012.88 1012.44 1012.56 1013.16 1013.56 1013.92 1014.32 1014.76 1015.20 1015.16 1015.20 1015.08 1014.88 1014.68 1014.56 1014.56 1014.52 1014.56 1014.64
1014.60 1014.44 1014.20 1013.96 1013.64 1013.56 1013.56 1013.64 1013.72 1013.92 1013.68 1013.52 1013.84 1013.88 1013.88 1013.96 1014.16 1013.28 1013.04 1012.80 1012.72 1012.48 1012.60 1012.60 1012.40 1012.36 1012.92 1013.40 1013.92 1014.28 1014.88 1015.00 1015.12 1015.20 1015.24 1015.16 1014.88 1014.52 1014.40 1014.28 1014.24 1014.32
1014.56 1014.60 1014.60 1014.16 1013.64 1013.40 1013.60 1014.16 1014.08 1013.92 1014.00 1014.04 1014.32 1014.52 1014.88 1014.44 1014.64 1015.04 1015.00 1014.88 1014.40 1013.56 1012.68 1012.64 1012.60 1012.32 1012.80 1013.24 1013.68 1014.32 1014.52 1014.76 1014.88 1015.16 1015.28 1015.20 1015.04 1014.68 1014.32 1014.08 1013.96 1014.04
1014.96 1015.00 1014.92 1014.64 1014.28 1014.00 1013.88 1014.08 1014.00 1013.96 1013.88 1013.88 1014.08 1014.08 1013.72 1013.32 1013.36 1013.56 1013.72 1013.56 1013.84 1014.24 1014.44 1014.52 1013.32 1012.64 1012.92 1013.24 1013.72 1014.08 1014.44 1014.44 1014.60 1014.96 1015.24 1015.16 1015.08 1014.96 1014.48 1014.20 1014.00 1013.84
1014.84 1014.88 1014.84 1014.64 1014.44 1014.12 1013.96 1013.84 1013.80 1013.96 1014.00 1014.04 1014.00 1013.96 1013.92 1013.84 1013.84 1013.84 1013.68 1013.16 1012.80 1012.64 1012.60 1013.40 1014.36 1014.60 1014.64 1014.36 1013.84 1014.16 1014.32 1014.16 1014.32 1014.76 1015.04 1014.96 1014.88 1014.80 1014.80 1014.44 1014.12 1013.88
Thickness
5802 5802 5800 5800 5801 5801 5801 5800 5800 5800 5799 5800 5799 5799 5801 5802 5803 5803 5802 5801 5800 5800 5800 5799 5800 5799 5799 5799 5799 5800 5800 5799 5799 5800 5799 5797 5797 5798 5799 5799 5800 5799
5804 5804 5803 5802 5802 5802 5804 5803 5803 5803 5802 5802 5803 5803 5803 5804 5804 5803 5802 5802 5801 5801 5801 5801 5801 5800 5801 5801 5800 5800 5800 5799 5800 5802 5800 5798 5798 5799 5799 5801 5801 5800
5805 5806 5805 5804 5804 5804 5805 5806 5806 5806 5806 5805 5806 5806 5806 5806 5805 5804 5803 5803 5802 5803 5802 5801 5801 5801 5801 5802 5801 5801 5801 5800 5801 5803 5802 5800 5800 5800 5801 5802 5803 5803
5806 5807 5807 5807 5808 5807 5807 5807 5807 5807 5807 5807 5807 5808 5809 5808 5807 5805 5804 5804 5803 5803 5804 5803 5802 5802 5802 5803 5803 5802 5802 5802 5802 5804 5802 5801 5802 5801 5802 5804 5803 5804
5808 5809 5809 5809 5810 5810 5809 5808 5807 5808 5809 5808 5809 5809 5809 5808 5807 5807 5805 5805 5804 5804 5805 5804 5803 5804 5804 5804 5804 5803 5804 5804 5804 5804 5801 5801 5803 5803 5805 5805 5803 5803
5811 5810 5810 5810 5811 5810 5810 5809 5809 5811 5810 5811 5811 5811 5811 5810 5808 5808 5807 5806 5806 5806 5807 5806 5805 5805 5805 5805 5804 5804 5804 5805 5805 5804 5801 5801 5803 5805 5807 5806 5803 5802
5811 5812 5812 5811 5812 5811 5811 5811 5811 5812 5813 5813 5813 5813 5813 5811 5809 5810 5809 5809 5809 5808 5809 5808 5807 5806 5806 5806 5804 5803 5804 5805 5805 5805 5802 5802 5803 5804 5806 5806 5805 5802
5814 5814 5814 5813 5813 5812 5812 5812 5812 5813 5814 5814 5814 5813 5815 5814 5812 5812 5812 5811 5810 5809 5809 5809 5809 5807 5807 5807 5805 5803 5804 5805 5807 5805 5802 5803 5802 5802 5804 5806 5805 5803
5815 5816 5816 5815 5815 5814 5814 5814 5814 5815 5815 5814 5814 5815 5816 5815 5815 5815 5813 5812 5811 5810 5810 5810 5810 5809 5809 5808 5806 5805 5804 5805 5807 5807 5803 5803 5803 5802 5804 5805 5804 5803
5818 5819 5818 5818 5818 5818 5817 5818 5818 5818 5817 5815 5815 5817 5817 5817 5817 5817 5815 5813 5812 5811 5811 5810 5810 5811 5810 5809 5809 5808 5806 5806 5807 5808 5807 5806 5805 5805 5806 5806 5805 5804
5818 5820 5820 5819 5820 5821 5821 5821 5822 5822 5820 5818 5817 5817 5819 5818 5817 5818 5817 5815 5813 5813 5813 5812 5812 5812 5811 5811 5812 5811 5810 5808 5808 5808 5808 5808 5808 5808 5809 5809 5808 5807
5818 5820 5821 5821 5822 5823 5824 5824 5824 5825 5824 5822 5820 5818 5820 5821 5820 5818 5818 5817 5815 5816 5816 5815 5815 5815 5814 5813 5813 5813 5812 5811 5810 5810 5809 5810 5810 5811 5811 5812 5811 5810
5818 5819 5821 5823 5823 5824 5826 5827 5827 5827 5826 5825 5824 5822 5821 5822 5822 5821 5820 5819 5818 5819 5819 5818 5817 5817 5816 5816 5815 5816 5814 5812 5812 5812 5812 5812 5813 5814 5815 5815 5815 5814
5816 5819 5821 5823 5825 5825 5826 5828 5829 5828 5828 5829 5828 5826 5824 5824 5825 5825 5823 5822 5821 5821 5821 5821 5820 5818 5818 5817 5816 5816 5816 5814 5814 5814 5814 5814 5814 5816 5817 5817 5818 5818
5815 5818 5822 5823 5824 5825 5825 5826 5828 5829 5829 5829 5829 5829 5828 5827 5828 5829 5827 5825 5823 5823 5823 5823 5822 5821 5820 5819 5818 5817 5817 5816 5816 5815 5815 5815 5815 5816 5818 5819 5819 5821
5814 5816 5820 5822 5822 5823 5825 5825 5827 5829 5830 5829 5829 5829 5829 5829 5829 5829 5829 5828 5826 5824 5824 5824 5825 5825 5824 5822 5820 5819 5818 5818 5818 5817 5816 5816 5816 5816 5817 5820 5821 5823
5809 5812 5816 5819 5820 5821 5823 5824 5825 5827 5828 5829 5829 5829 5829 5829 5829 5828 5829 5830 5829 5828 5826 5825 5827 5828 5826 5823 5821 5820 5820 5819 5818 5817 5817 5817 5816 5817 5817 5819 5822 5824
5797 5805 5811 5813 5817 5819 5820 5822 5823 5824 5825 5827 5828 5828 5828 5828 5828 5827 5828 5830 5831 5831 5829 5828 5829 5830 5828 5824 5822 5820 5819 5819 5819 5818 5818 5818 5818 5819 5819 5820 5822 5823
5785 5795 5803 5808 5813 5816 5818 5820 5820 5820 5822 5824 5825 5827 5827 5826 5826 5826 5827 5828 5829 5831 5831 5832 5832 5831 5828 5824 5822 5820 5819 5818 5819 5820 5819 5820 5820 5821 5821 5821 5822 5822
5778 5784 5792 5800 5807 5811 5814 5815 5816 5817 5819 5821 5823 5823 5822 5822 5823 5824 5825 5826 5827 5828 5829 5832 5833 5833 5830 5826 5822 5820 5818 5816 5818 5820 5821 5822 5822 5823 5824 5823 5823 5823
5778 5778 5781 5789 5797 5803 5807 5809 5811 5812 5814 5815 5817 5818 5818 5819 5820 5821 5822 5823 5825 5827 5827 5829 5832 5832 5829 5825 5823 5820 5816 5814 5816 5818 5820 5822 5823 5824 5824 5824 5824 5824
5777 5778 5780 5783 5786 5790 5795 5798 5800 5801 5802 5804 5806 5808 5811 5814 5815 5817 5819 5820 5823 5824 5824 5826 5829 5830 5827 5824 5821 5817 5813 5812 5813 5815 5817 5819 5821 5823 5824 5824 5825 5824
5772 5775 5778 5779 5781 5783 5785 5786 5788 5789 5792 5794 5794 5794 5797 5799 5800 5802 5806 5809 5814 5818 5820 5822 5826 5826 5824 5820 5818 5814 5810 5810 5810 5811 5812 5814 5817 5820 5821 5823 5825 5824
5766 5769 5771 5772 5775 5778 5777 5778 5782 5785 5789 5791 5790 5790 5794 5798 5798 5796 5796 5798 5801 5806 5811 5814 5819 5822 5820 5816 5814 5810 5808 5808 5808 5806 5808 5809 5812 5815 5818 5821 5822 5823
5759 5761 5762 5764 5765 5767 5770 5775 5779 5782 5784 5786 5788 5790 5796 5802 5803 5801 5802 5804 5804 5804 5805 5804 5807 5812 5812 5811 5811 5807 5805 5806 5805 5803 5804 5806 5807 5810 5813 5816 5819 5820
5754 5756 5757 5759 5760 5761 5766 5772 5775 5775 5776 5778 5782 5786 5792 5796 5797 5797 5800 5805 5807 5809 5810 5808 5805 5802 5798 5798 5801 5802 5802 5802 5801 5801 5802 5803 5804 5805 5807 5810 5813 5816